sat.trackr.live / text

‹ back to catalog

STARLINK-34079

NORAD 64038 · 2025-102S

PAYLOAD ACTIVE UNKNOWN

§ Identity

Operator
Country
US
Launch date
2025-05-16
Launch site
AFWTR
Launch vehicle
Mass (kg)
RCS (m²)

Purposes: comms

External: N2YO · Heavens-Above · Gunter

§ Orbital elements

Epoch: 2026-09-20T13:46:45.478272Z

Period
94.14 min
Inclination
69.9977°
Eccentricity
0.0003507
Mean motion
15.29573431 rev/d
Perigee alt
474.7 km
Apogee alt
479.5 km
Semi-major
6,855.2 km
B*
9.8817e-5
RAAN
340.7008°
Arg perigee
263.8293°
Mean anomaly
96.2483°
Rev number
7,530

§ Raw data

STARLINK-340791 64038U 25102S   26263.57413748  .00002713  00000+0  98817-4 0  99982 64038  69.9977 340.7008 0003507 263.8293  96.2483 15.29573431 75307

JSON: /api/v1/satellites/64038 · /tle

For live sub-satellite position, see the globe view (requires WebGL).

§ Visibility from observer

Set your observer location to see the next 7 days of passes ≥ 10°. The values pass through the URL so the page stays shareable.

No JS? Fill the form by hand. The geolocation button needs JavaScript.